Location: Cuiry
(49.3858°N, 3.7708°E)
Time: 09:49:34
(UTC+00:00)

Cosmos 1943 - Pass Details

Date: 12 January 2026
Orbit: 830 x 850 km, 71.0° (Epoch: 19 February)

Event Time Altitude Azimuth Distance (km) Brightness Sun altitude
Rises 17:28:48 0° 193° (SSW) 3,367 6.8 -12.4°
Reaches altitude 10° 17:31:15 10° 190° (S) 2,440 6.0 -12.7°
Maximum altitude 17:36:44 59° 112° (ESE) 968 3.3 -13.6°
Enters shadow 17:41:37 14° 36° (NE) 2,225 4.9 -14.4°
